Retour au catalogue

COSMOS 2251 DEB

ActifLEO
NORAD 34446·DEBRIS·🇷🇺 Russia

Lancé Jun 16, 1993 depuis Plesetsk Cosmodrome

Loading…

Prochains Passages (prochaines 24 heures)

TLE

FraisSource: Space-Track

Époque: Sep 14, 2026, 08:16 UTC

1 34446U 93036SP  26257.34459928  .00000267  00000-0  75794-4 0  9999
2 34446  74.0386 260.3182 0051670 326.4458  33.3432 14.49589809926871

Suivez COSMOS 2251 DEB en temps réel avec AllMySat

Download on the App Store